Location: Boda
(47.1872°N, 9.5454°E)
Time: 08:57:16
(UTC+00:00)

Helios 1A - Pass Details

Date: 14 May 2021
Orbit: 585 x 601 km, 98.2° (Epoch: 12 June)

Event Time Altitude Azimuth Distance (km) Brightness Sun altitude
Exits shadow 00:16:41 76° 133° (SE) 611 2.8 -22.9°
Maximum altitude 00:16:57 82° 76° (ENE) 599 2.9 -22.9°
Drops below altitude 10° 00:21:07 10° 348° (NNW) 1,920 6.4 -22.7°
Sets 00:23:17 0° 347° (NNW) 2,824 7.4 -22.6°
